Location: Devore Heights
(34.2372°N, 117.4156°W)
Time: 00:54:25
(UTC+00:00)

Altair - Pass Details

Date: 13 September 2024
Orbit: 1501 x 1682 km, 47.2° (Epoch: 09 October)

Event Time Altitude Azimuth Distance (km) Brightness Sun altitude
Exits shadow 10:28:46 84° 240° (WSW) 1,677 7.4 -36.1°
Maximum altitude 10:29:13 89° 325° (NW) 1,671 7.4 -36.1°
Drops below altitude 10° 10:39:27 10° 54° (NE) 3,948 10.4 -34.3°
Sets 10:42:38 0° 55° (NE) 4,937 11.2 -33.8°
